Погода в Бресте

Франция     48°23′14″N   4°28′56″W
темп.,
°C
ветер,
м/с
пор.,
м/с
влажн.,
%
обл.,
%
осадки,
мм/ч
давл.,
гПа
погр.,
м
6 мая, чт
чт623:00+7ююз4688100 0.6 1013343
02:00+6юв4794100 1.6 1010300
05:00+8ююв51197100 1.4 1005489
08:00+11з9149015 4.9 1003761
11:00+12з10148435 0.5 10041124
14:00+10ссв6680100 0.8 1008778
17:00+10ссз4573100 0.1 1010898
20:00+9ссз447170 0.1 1011713
7 мая, пт
пт723:00+5ссз23855 0.0 101482
02:00+5ссв22795 0.0 101586
05:00+4св227238 0.0 101572
08:00+5в2272100 0.0 101766
11:00+10вюв2254100 0.0 1018812
14:00+13ююз225189 0.0 10171086
17:00+13юз3457100 0.0 10161067
20:00+11ю5876100 0.0 1015524
8 мая, сб
сб823:00+10ююв71392100 0.5 1014631
02:00+12ю91497100 1.2 1011625
05:00+13ююз101796100 1.6 1007746
08:00+13ююз112094100 1.8 1006726
11:00+15ююз121988100 0.0 1005828
14:00+16ююз121877100 0.0 1005857
17:00+16ююз1218770 0.0 1004830
20:00+14ююз1017822 0.0 1003745
9 мая, вс
вс923:00+13ю917830 0.0 1001613
02:00+14ю10187131 0.0 999783
05:00+14ю9187180 0.0 996728
08:00+13ю8167191 0.0 995821
11:00+14юз71072100 0.1 995873
14:00+13ююз101480100 1.1 9961168
17:00+14ююз1115713 0.1 9961289
20:00+12ююз10148391 0.2 9961100
10 мая, пн
пн1023:00+11ююз9149131 0.3 996735
02:00+10ююз8139123 0.6 997682
05:00+9юз814895 0.3 998730
08:00+10юз913840 0.4 999914
11:00+12юз1013675 0.1 10001415
14:00+13ююз1114663 0.2 10011509
17:00+13ююз1013674 0.3 10021455
20:00+11ююз913780 0.5 10021141